FW4098 Weather Reports


time (UTC)temp
C
wind
direction
speed
KPH
gust
KPH
rain 1hr
cm
rain 24hr
cm
rain mn
cm
humidity
%
barometer
mb
20260906214535 38 360 14.5 25.7 0.00 0.00 0.00 37 1009.2
20260906213033 38 360 4.8 19.3 0.00 0.00 0.00 36 1009.4
20260906211533 38 360 11.3 20.9 0.00 0.00 0.00 35 1009.6
20260906210029 38 360 8.0 22.5 0.00 0.00 0.00 35 1009.8
20260906204528 38 360 6.4 19.3 0.00 0.00 0.00 36 1009.9
20260906203027 38 360 9.7 22.5 0.00 0.00 0.00 34 1010.0
20260906201526 38 360 8.0 22.5 0.00 0.00 0.00 35 1010.2
20260906200022 38 360 16.1 25.7 0.00 0.00 0.00 35 1010.5
20260906194519 38 360 8.0 20.9 0.00 0.00 0.00 34 1010.6
20260906193018 38 360 11.3 22.5 0.00 0.00 0.00 35 1010.8
20260906191517 37 360 12.9 20.9 0.00 0.00 0.00 36 1010.8
20260906190015 37 360 8.0 27.4 0.00 0.00 0.00 38 1010.9
20260906184513 37 360 1.6 19.3 0.00 0.00 0.00 38 1011.1
20260906183016 37 360 9.7 20.9 0.00 0.00 0.00 39 1011.3
20260906181510 37 360 6.4 16.1 0.00 0.00 0.00 39 1011.6
20260906180008 37 360 6.4 19.3 0.00 0.00 0.00 41 1011.9
20260906174509 36 360 3.2 16.1 0.00 0.00 0.00 43 1012.1
20260906173004 36 360 11.3 19.3 0.00 0.00 0.00 42 1012.5
20260906171501 36 360 8.0 20.9 0.00 0.00 0.00 41 1012.6
20260906170121 36 360 9.7 17.7 0.00 0.00 0.00 44 1012.7
20260906164557 36 360 3.2 14.5 0.00 0.00 0.00 47 1012.7
20260906163050 35 360 6.4 14.5 0.00 0.00 0.00 48 1013.0
20260906161545 35 360 6.4 12.9 0.00 0.00 0.00 48 1013.0
20260906160041 34 360 0.0 6.4 0.00 0.00 0.00 48 1013.0
20260906154537 34 360 0.0 4.8 0.00 0.00 0.00 51 1013.1
20260906153032 33 360 0.0 4.8 0.00 0.00 0.00 53 1013.0
20260906151528 32 360 1.6 6.4 0.00 0.00 0.00 56 1012.9
20260906150024 31 360 0.0 1.6 0.00 0.00 0.00 57 1012.9
20260906144527 31 360 1.6 4.8 0.00 0.00 0.00 61 1012.9
20260906143013 30 360 0.0 8.0 0.00 0.00 0.00 64 1012.9
20260906141509 28 360 0.0 6.4 0.00 0.00 0.00 65 1012.9
20260906140009 28 360 3.2 8.0 0.00 0.00 0.00 67 1012.9
20260906134502 27 360 3.2 9.7 0.00 0.00 0.00 69 1012.9
20260906133103 26 360 3.2 6.4 0.00 0.00 0.00 70 1012.8
20260906131559 26 360 1.6 6.4 0.00 0.00 0.00 72 1012.7
20260906130054 25 360 0.0 4.8 0.00 0.00 0.00 74 1012.4
20260906124552 25 360 3.2 6.4 0.00 0.00 0.00 75 1012.2
20260906123119 25 360 3.2 4.8 0.00 0.00 0.00 75 1012.1
20260906121550 25 360 0.0 3.2 0.00 0.00 0.00 75 1011.8
20260906120050 25 360 0.0 4.8 0.00 0.00 0.00 75 1011.8
20260906114546 25 360 0.0 4.8 0.00 0.00 0.00 75 1011.7
20260906113044 25 360 0.0 4.8 0.00 0.00 0.00 74 1011.5
20260906111543 25 360 3.2 6.4 0.00 0.00 0.00 74 1011.5
20260906110041 25 360 0.0 0.0 0.00 0.00 0.00 74 1011.4
20260906104539 25 360 0.0 1.6 0.00 0.00 0.00 72 1011.3
20260906103038 26 360 1.6 3.2 0.00 0.00 0.00 71 1011.3
20260906101537 26 360 1.6 6.4 0.00 0.00 0.00 70 1011.4
20260906100035 26 360 0.0 1.6 0.00 0.00 0.00 70 1011.2
20260906094535 26 360 0.0 1.6 0.00 0.00 0.00 69 1011.1
20260906093033 26 360 0.0 0.0 0.00 0.00 0.00 69 1010.9
20260906091536 26 360 0.0 1.6 0.00 0.00 0.00 68 1011.1
20260906090032 26 360 0.0 4.8 0.00 0.00 0.00 67 1010.9
20260906084531 26 360 0.0 0.0 0.00 0.00 0.00 67 1010.7
20260906083034 26 360 0.0 0.0 0.00 0.00 0.00 67 1010.7
20260906081528 26 360 0.0 0.0 0.00 0.00 0.00 66 1010.7
20260906080030 26 360 0.0 0.0 0.00 0.00 0.00 65 1010.9
20260906074524 27 360 1.6 4.8 0.00 0.00 0.00 63 1010.7
20260906073022 27 360 0.0 1.6 0.00 0.00 0.00 62 1010.7
20260906071520 27 360 1.6 6.4 0.00 0.00 0.00 61 1010.9
20260906070018 27 360 0.0 8.0 0.00 0.00 0.00 61 1010.7
20260906064514 28 360 3.2 6.4 0.00 0.00 0.00 60 1011.0
20260906063013 28 360 3.2 8.0 0.00 0.00 0.00 59 1011.0
20260906061512 28 360 1.6 8.0 0.00 0.00 0.00 59 1011.1
20260906060010 28 360 4.8 8.0 0.00 0.00 0.00 58 1011.1
20260906054508 28 360 3.2 6.4 0.00 0.00 0.00 60 1011.2
20260906053007 28 360 1.6 6.4 0.00 0.00 0.00 60 1011.0
20260906051505 28 360 1.6 6.4 0.00 0.00 0.00 59 1011.0
20260906050001 29 360 0.0 4.8 0.00 0.00 0.00 58 1011.0
20260906044600 29 360 0.0 4.8 0.00 0.00 0.00 57 1011.1
20260906043103 30 360 0.0 6.4 0.00 0.00 0.00 54 1011.0
20260906041602 30 360 3.2 8.0 0.00 0.00 0.00 54 1011.0
20260906040059 30 360 3.2 8.0 0.00 0.00 0.00 54 1011.1
20260906034557 30 360 3.2 8.0 0.00 0.00 0.00 52 1011.1
20260906033110 31 360 4.8 12.9 0.00 0.00 0.00 52 1010.9
20260906031558 31 360 4.8 9.7 0.00 0.00 0.00 51 1010.7
20260906030057 31 360 3.2 8.0 0.00 0.00 0.00 50 1010.5
20260906024557 32 360 4.8 9.7 0.00 0.00 0.00 49 1010.4
20260906023057 32 360 4.8 12.9 0.00 0.00 0.00 48 1010.1
20260906021559 32 360 6.4 14.5 0.00 0.00 0.00 47 1009.8
20260906020106 33 360 4.8 14.5 0.00 0.00 0.00 45 1009.7
20260906014556 33 360 4.8 16.1 0.00 0.00 0.00 44 1009.3
20260906013107 33 360 6.4 14.5 0.00 0.00 0.00 43 1009.1
20260906011604 34 360 4.8 14.5 0.00 0.00 0.00 42 1009.0
20260906010053 35 360 6.4 14.5 0.00 0.00 0.00 41 1008.9
20260906004602 35 360 6.4 14.5 0.00 0.00 0.00 40 1008.8
20260906003057 36 360 8.0 20.9 0.00 0.00 0.00 39 1008.7
20260906001552 36 360 8.0 20.9 0.00 0.00 0.00 39 1008.6
20260906000057 36 360 6.4 20.9 0.00 0.00 0.00 38 1008.6
20260905234550 37 360 11.3 20.9 0.00 0.00 0.00 37 1008.5
20260905233050 37 360 11.3 22.5 0.00 0.00 0.00 37 1008.3
20260905231549 37 360 12.9 22.5 0.00 0.00 0.00 36 1008.3
20260905230048 37 360 11.3 19.3 0.00 0.00 0.00 35 1008.3
20260905224550 38 360 6.4 22.5 0.00 0.00 0.00 35 1008.3
20260905223043 37 360 8.0 22.5 0.00 0.00 0.00 35 1008.4
20260905221542 38 360 9.7 20.9 0.00 0.00 0.00 35 1008.4
20260905220040 38 360 6.4 17.7 0.00 0.00 0.00 34 1008.6